Time,TemperatureF,DewpointF,PressureIn,WindDirection,WindDirectionDegrees,WindSpeedMPH,WindSpeedGustMPH,Humidity,HourlyPrecipIn,Conditions,Clouds,dailyrainin,SoftwareType,DateUTC
2013-01-26 00:13:00,9.1,7.0,30.14,ENE,73,0.0,-999.0,89,-99.99,,,0.00,weatherlink.com 1.10,2013-01-26 05:13:00,
2013-01-26 00:28:00,8.9,6.0,30.15,ENE,73,0.0,-999.0,89,-99.99,,,0.00,weatherlink.com 1.10,2013-01-26 05:28:00,
2013-01-26 00:43:00,8.6,6.0,30.14,ENE,73,0.0,-999.0,89,-99.99,,,0.00,weatherlink.com 1.10,2013-01-26 05:43:00,
2013-01-26 00:58:00,8.5,6.0,30.14,ENE,73,0.0,-999.0,89,-99.99,,,0.00,weatherlink.com 1.10,2013-01-26 05:58:00,
2013-01-26 01:13:00,8.2,6.0,30.15,ENE,73,0.0,-999.0,89,-99.99,,,0.00,weatherlink.com 1.10,2013-01-26 06:13:00,
2013-01-26 01:28:00,8.1,6.0,30.15,ENE,73,0.0,-999.0,89,-99.99,,,0.00,weatherlink.com 1.10,2013-01-26 06:28:00,
2013-01-26 01:43:00,7.8,5.0,30.16,ENE,73,0.0,-999.0,89,-99.99,,,0.00,weatherlink.com 1.10,2013-01-26 06:43:00,
2013-01-26 01:58:00,7.6,5.0,30.16,ENE,73,0.0,-999.0,89,-99.99,,,0.00,weatherlink.com 1.10,2013-01-26 06:58:00,
2013-01-26 02:13:00,7.4,5.0,30.16,ENE,73,0.0,-999.0,89,-99.99,,,0.00,weatherlink.com 1.10,2013-01-26 07:13:00,
2013-01-26 02:28:00,7.2,4.0,30.16,ENE,73,0.0,-999.0,88,-99.99,,,0.00,weatherlink.com 1.10,2013-01-26 07:28:00,
2013-01-26 02:43:00,7.0,5.0,30.16,ENE,73,0.0,-999.0,89,-99.99,,,0.00,weatherlink.com 1.10,2013-01-26 07:43:00,
2013-01-26 02:58:00,7.1,5.0,30.16,ENE,73,0.0,-999.0,89,-99.99,,,0.00,weatherlink.com 1.10,2013-01-26 07:58:00,
2013-01-26 03:13:00,6.9,4.0,30.16,ENE,73,0.0,-999.0,89,-99.99,,,0.00,weatherlink.com 1.10,2013-01-26 08:13:00,
2013-01-26 03:28:00,6.8,4.0,30.16,ENE,73,0.0,-999.0,89,-99.99,,,0.00,weatherlink.com 1.10,2013-01-26 08:28:00,
2013-01-26 03:43:00,6.5,4.0,30.16,ENE,73,0.0,-999.0,88,-99.99,,,0.00,weatherlink.com 1.10,2013-01-26 08:43:00,
2013-01-26 03:58:00,6.2,3.0,30.17,ENE,73,0.0,-999.0,88,-99.99,,,0.00,weatherlink.com 1.10,2013-01-26 08:58:00,
2013-01-26 04:13:00,6.1,3.0,30.17,ENE,73,0.0,-999.0,88,-99.99,,,0.00,weatherlink.com 1.10,2013-01-26 09:13:00,
2013-01-26 04:28:00,6.7,4.0,30.18,ENE,74,2.0,-999.0,89,-99.99,,,0.00,weatherlink.com 1.10,2013-01-26 09:28:00,
2013-01-26 04:43:00,7.2,5.0,30.18,ENE,74,0.0,-999.0,89,-99.99,,,0.00,weatherlink.com 1.10,2013-01-26 09:43:00,
2013-01-26 04:59:00,7.5,5.0,30.18,ENE,74,0.0,-999.0,89,-99.99,,,0.00,weatherlink.com 1.10,2013-01-26 09:59:00,
2013-01-26 05:14:00,7.9,6.0,30.19,ENE,77,0.0,-999.0,90,-99.99,,,0.00,weatherlink.com 1.10,2013-01-26 10:14:00,
2013-01-26 05:29:00,8.2,6.0,30.19,ENE,77,0.0,-999.0,89,-99.99,,,0.00,weatherlink.com 1.10,2013-01-26 10:29:00,
2013-01-26 05:44:00,8.6,6.0,30.19,ENE,77,0.0,-999.0,90,-99.99,,,0.00,weatherlink.com 1.10,2013-01-26 10:44:00,
2013-01-26 05:59:00,8.8,6.0,30.20,ENE,77,0.0,-999.0,89,-99.99,,,0.00,weatherlink.com 1.10,2013-01-26 10:59:00,
2013-01-26 06:14:00,8.9,6.0,30.20,ENE,77,0.0,-999.0,89,-99.99,,,0.00,weatherlink.com 1.10,2013-01-26 11:14:00,
2013-01-26 06:29:00,9.0,6.0,30.21,ENE,77,0.0,-999.0,89,-99.99,,,0.00,weatherlink.com 1.10,2013-01-26 11:29:00,
2013-01-26 06:44:00,9.2,7.0,30.22,ENE,77,0.0,-999.0,89,-99.99,,,0.00,weatherlink.com 1.10,2013-01-26 11:44:00,
2013-01-26 06:59:00,9.5,7.0,30.22,ENE,77,0.0,-999.0,89,-99.99,,,0.00,weatherlink.com 1.10,2013-01-26 11:59:00,
2013-01-26 07:14:00,9.8,7.0,30.23,ENE,77,0.0,-999.0,89,-99.99,,,0.00,weatherlink.com 1.10,2013-01-26 12:14:00,
2013-01-26 07:29:00,10.2,8.0,30.22,ENE,77,0.0,-999.0,90,-99.99,,,0.00,weatherlink.com 1.10,2013-01-26 12:29:00,
2013-01-26 07:44:00,10.5,8.0,30.23,ENE,77,0.0,-999.0,89,-99.99,,,0.00,weatherlink.com 1.10,2013-01-26 12:44:00,
2013-01-26 07:59:00,10.9,9.0,30.23,ENE,77,0.0,-999.0,90,-99.99,,,0.00,weatherlink.com 1.10,2013-01-26 12:59:00,
2013-01-26 08:14:00,11.2,9.0,30.23,ENE,77,0.0,-999.0,89,-99.99,,,0.00,weatherlink.com 1.10,2013-01-26 13:14:00,
2013-01-26 08:29:00,11.8,9.0,30.24,ENE,77,0.0,-999.0,89,-99.99,,,0.00,weatherlink.com 1.10,2013-01-26 13:29:00,
2013-01-26 08:44:00,12.4,10.0,30.25,ENE,77,0.0,-999.0,89,-99.99,,,0.00,weatherlink.com 1.10,2013-01-26 13:44:00,
2013-01-26 08:59:00,13.0,10.0,30.25,ENE,77,0.0,-999.0,88,-99.99,,,0.00,weatherlink.com 1.10,2013-01-26 13:59:00,
2013-01-26 09:14:00,13.6,11.0,30.26,ESE,115,2.0,-999.0,87,-99.99,,,0.00,weatherlink.com 1.10,2013-01-26 14:14:00,
2013-01-26 09:29:00,14.4,11.0,30.26,ESE,115,0.0,-999.0,86,-99.99,,,0.00,weatherlink.com 1.10,2013-01-26 14:29:00,
2013-01-26 09:44:00,14.9,11.0,30.26,ESE,116,0.0,-999.0,85,-99.99,,,0.00,weatherlink.com 1.10,2013-01-26 14:44:00,
2013-01-26 09:59:00,16.3,12.0,30.27,ESE,116,0.0,-999.0,84,-99.99,,,0.00,weatherlink.com 1.10,2013-01-26 14:59:00,
2013-01-26 10:14:00,16.7,12.0,30.27,ESE,120,0.0,-999.0,81,-99.99,,,0.00,weatherlink.com 1.10,2013-01-26 15:14:00,
2013-01-26 10:29:00,17.5,13.0,30.27,ESE,120,0.0,-999.0,81,-99.99,,,0.00,weatherlink.com 1.10,2013-01-26 15:29:00,
2013-01-26 10:44:00,19.3,13.0,30.27,ESE,121,0.0,-999.0,77,-99.99,,,0.00,weatherlink.com 1.10,2013-01-26 15:44:00,
2013-01-26 11:00:00,20.3,13.0,30.27,SE,139,0.0,-999.0,74,-99.99,,,0.00,weatherlink.com 1.10,2013-01-26 16:00:00,
2013-01-26 11:14:00,20.9,12.0,30.27,SSE,156,0.0,-999.0,69,-99.99,,,0.00,weatherlink.com 1.10,2013-01-26 16:14:00,
2013-01-26 11:30:00,21.9,13.0,30.27,SSE,150,1.0,-999.0,69,-99.99,,,0.01,weatherlink.com 1.10,2013-01-26 16:30:00,
2013-01-26 11:45:00,21.5,12.0,30.28,SSE,160,0.0,-999.0,68,-99.99,,,0.01,weatherlink.com 1.10,2013-01-26 16:45:00,
2013-01-26 12:00:00,22.7,13.0,30.28,South,169,0.0,-999.0,67,-99.99,,,0.02,weatherlink.com 1.10,2013-01-26 17:00:00,
2013-01-26 12:15:00,23.2,12.0,30.28,SSE,155,1.0,-999.0,63,-99.99,,,0.02,weatherlink.com 1.10,2013-01-26 17:15:00,
2013-01-26 12:30:00,24.1,12.0,30.28,South,190,0.0,-999.0,61,-99.99,,,0.03,weatherlink.com 1.10,2013-01-26 17:30:00,
2013-01-26 12:45:00,22.7,11.0,30.28,South,190,3.0,-999.0,61,-99.99,,,0.04,weatherlink.com 1.10,2013-01-26 17:45:00,
2013-01-26 13:00:00,23.1,12.0,30.29,SW,221,4.0,-999.0,62,-99.99,,,0.04,weatherlink.com 1.10,2013-01-26 18:00:00,
2013-01-26 13:15:00,23.3,12.0,30.29,SW,226,4.0,-999.0,63,-99.99,,,0.04,weatherlink.com 1.10,2013-01-26 18:15:00,
2013-01-26 13:30:00,23.3,12.0,30.29,SSW,213,2.0,-999.0,61,-99.99,,,0.05,weatherlink.com 1.10,2013-01-26 18:30:00,
2013-01-26 13:45:00,23.6,12.0,30.29,SW,236,4.0,-999.0,61,-99.99,,,0.05,weatherlink.com 1.10,2013-01-26 18:45:00,
2013-01-26 14:00:00,23.6,13.0,30.29,SW,236,0.0,-999.0,63,-99.99,,,0.05,weatherlink.com 1.10,2013-01-26 19:00:00,
2013-01-26 14:15:00,23.6,13.0,30.30,SW,232,1.0,-999.0,63,-99.99,,,0.05,weatherlink.com 1.10,2013-01-26 19:15:00,
2013-01-26 14:30:00,23.9,13.0,30.30,SSW,210,4.0,-999.0,64,-99.99,,,0.05,weatherlink.com 1.10,2013-01-26 19:30:00,
2013-01-26 14:45:00,23.8,14.0,30.30,West,279,3.0,-999.0,65,-99.99,,,0.05,weatherlink.com 1.10,2013-01-26 19:45:00,
2013-01-26 15:00:00,23.8,14.0,30.31,NW,305,1.0,-999.0,67,-99.99,,,0.05,weatherlink.com 1.10,2013-01-26 20:00:00,
2013-01-26 15:15:00,23.7,15.0,30.31,West,267,4.0,-999.0,69,-99.99,,,0.05,weatherlink.com 1.10,2013-01-26 20:15:00,
2013-01-26 15:30:00,23.4,15.0,30.32,West,277,4.0,-999.0,70,-99.99,,,0.05,weatherlink.com 1.10,2013-01-26 20:30:00,
2013-01-26 15:45:00,23.0,15.0,30.32,WSW,252,4.0,-999.0,72,-99.99,,,0.05,weatherlink.com 1.10,2013-01-26 20:45:00,
2013-01-26 16:00:00,22.7,16.0,30.32,WSW,254,0.0,-999.0,76,-99.99,,,0.05,weatherlink.com 1.10,2013-01-26 21:00:00,
2013-01-26 16:15:00,22.6,16.0,30.32,WSW,254,1.0,-999.0,77,-99.99,,,0.05,weatherlink.com 1.10,2013-01-26 21:15:00,
2013-01-26 16:30:00,22.5,16.0,30.33,WSW,254,3.0,-999.0,77,-99.99,,,0.05,weatherlink.com 1.10,2013-01-26 21:30:00,
2013-01-26 16:45:00,22.3,16.0,30.34,WSW,254,3.0,-999.0,78,-99.99,,,0.05,weatherlink.com 1.10,2013-01-26 21:45:00,
2013-01-26 17:00:00,22.1,16.0,30.34,WSW,254,0.0,-999.0,78,-99.99,,,0.05,weatherlink.com 1.10,2013-01-26 22:00:00,
2013-01-26 17:15:00,21.8,16.0,30.35,WSW,254,0.0,-999.0,79,-99.99,,,0.05,weatherlink.com 1.10,2013-01-26 22:15:00,
2013-01-26 17:30:00,21.4,16.0,30.35,WSW,254,0.0,-999.0,79,-99.99,,,0.05,weatherlink.com 1.10,2013-01-26 22:30:00,
2013-01-26 17:45:00,20.7,15.0,30.35,WSW,254,0.0,-999.0,79,-99.99,,,0.05,weatherlink.com 1.10,2013-01-26 22:45:00,
2013-01-26 18:00:00,19.6,15.0,30.36,WSW,254,0.0,-999.0,81,-99.99,,,0.05,weatherlink.com 1.10,2013-01-26 23:00:00,
2013-01-26 18:15:00,18.8,15.0,30.36,WSW,254,0.0,-999.0,83,-99.99,,,0.05,weatherlink.com 1.10,2013-01-26 23:15:00,
2013-01-26 18:30:00,18.1,14.0,30.36,WSW,254,0.0,-999.0,84,-99.99,,,0.05,weatherlink.com 1.10,2013-01-26 23:30:00,
2013-01-26 18:45:00,17.6,14.0,30.36,WSW,254,0.0,-999.0,86,-99.99,,,0.05,weatherlink.com 1.10,2013-01-26 23:45:00,
2013-01-26 19:00:00,17.2,14.0,30.37,WSW,254,0.0,-999.0,86,-99.99,,,0.05,weatherlink.com 1.10,2013-01-27 00:00:00,
2013-01-26 19:15:00,16.8,14.0,30.37,WSW,254,0.0,-999.0,87,-99.99,,,0.05,weatherlink.com 1.10,2013-01-27 00:15:00,
2013-01-26 19:30:00,16.6,14.0,30.37,WSW,254,0.0,-999.0,88,-99.99,,,0.05,weatherlink.com 1.10,2013-01-27 00:30:00,
2013-01-26 19:45:00,16.4,14.0,30.38,WSW,254,0.0,-999.0,88,-99.99,,,0.05,weatherlink.com 1.10,2013-01-27 00:45:00,
2013-01-26 20:00:00,16.6,14.0,30.38,WSW,254,0.0,-999.0,89,-99.99,,,0.05,weatherlink.com 1.10,2013-01-27 01:00:00,
2013-01-26 20:16:00,17.5,15.0,30.39,WSW,254,0.0,-999.0,90,-99.99,,,0.05,weatherlink.com 1.10,2013-01-27 01:16:00,
2013-01-26 20:30:00,18.5,16.0,30.38,WSW,254,0.0,-999.0,89,-99.99,,,0.05,weatherlink.com 1.10,2013-01-27 01:30:00,
2013-01-26 20:45:00,19.7,16.0,30.39,WSW,254,0.0,-999.0,84,-99.99,,,0.05,weatherlink.com 1.10,2013-01-27 01:45:00,
2013-01-26 21:00:00,20.4,15.0,30.39,WSW,252,4.0,-999.0,78,-99.99,,,0.05,weatherlink.com 1.10,2013-01-27 02:00:00,
2013-01-26 21:15:00,20.6,14.0,30.40,WSW,242,2.0,-999.0,75,-99.99,,,0.05,weatherlink.com 1.10,2013-01-27 02:15:00,
2013-01-26 21:30:00,20.8,14.0,30.40,WSW,240,2.0,-999.0,74,-99.99,,,0.05,weatherlink.com 1.10,2013-01-27 02:30:00,
2013-01-26 21:45:00,21.2,14.0,30.40,SSW,211,1.0,-999.0,73,-99.99,,,0.05,weatherlink.com 1.10,2013-01-27 02:45:00,
2013-01-26 22:01:00,21.5,15.0,30.40,SW,215,0.0,-999.0,75,-99.99,,,0.05,weatherlink.com 1.10,2013-01-27 03:01:00,
2013-01-26 22:16:00,21.0,15.0,30.41,SSW,205,1.0,-999.0,77,-99.99,,,0.05,weatherlink.com 1.10,2013-01-27 03:16:00,
2013-01-26 22:31:00,20.6,14.0,30.41,SSW,213,4.0,-999.0,77,-99.99,,,0.05,weatherlink.com 1.10,2013-01-27 03:31:00,
2013-01-26 22:46:00,20.4,15.0,30.41,SW,216,3.0,-999.0,78,-99.99,,,0.05,weatherlink.com 1.10,2013-01-27 03:46:00,
2013-01-26 23:01:00,20.7,15.0,30.42,SW,216,2.0,-999.0,78,-99.99,,,0.05,weatherlink.com 1.10,2013-01-27 04:01:00,
2013-01-26 23:16:00,20.6,15.0,30.42,SSW,209,1.0,-999.0,79,-99.99,,,0.05,weatherlink.com 1.10,2013-01-27 04:16:00,
2013-01-26 23:31:00,20.5,15.0,30.42,SSW,208,2.0,-999.0,80,-99.99,,,0.05,weatherlink.com 1.10,2013-01-27 04:31:00,
2013-01-26 23:46:00,20.4,15.0,30.43,SSW,209,2.0,-999.0,80,-99.99,,,0.05,weatherlink.com 1.10,2013-01-27 04:46:00,